Volver al catálogo

FLOCK 4H 22

ActivoCienciaSSO
NORAD 66725·PAYLOAD·🇺🇸 United States

Lanzado Nov 28, 2025 desde Vandenberg Space Force Base

Loading…

Próximos Pases (próximas 24 horas)

TLE

ActualizadoSource: CelesTrak SupGP

Época: Sep 14, 2026, 12:45 UTC

1 66725C 25276BM  26257.53138889  .00010866  00000+0  48804-3 0  2579
2 66725  97.4099 329.6033 0004286  84.6216 229.9337 15.21216475    19

Sigue FLOCK 4H 22 en tiempo real con AllMySat

Download on the App Store